Simultaneous Nadir Overpasses (SNOs) Predictions

Prediction of SNOs between GOES-16 and LANDSAT-8 Satellite Orbit:

Table of predicted SNOs for the next 14.0 days since TLE Epoch: 11/4/2022
Index Date Time (GOES-16) GOES-16 Lat,Lon LANDSAT-8 Lat,Lon Distance(km) Time Diff (sec)
1 11/05/2022 03:04:10 0.06, -75.18 0.47, -73.22 222.39 80
2 11/05/2022 15:28:06 -0.05, -75.20 0.60, -78.39 362.07 80
3 11/07/2022 15:13:14 -0.05, -75.21 -0.03, -75.43 24.15 80
4 11/09/2022 15:01:02 -0.05, -75.23 -0.67, -72.47 314.50 80
5 11/10/2022 03:25:05 0.05, -75.22 -0.49, -77.65 276.58 80
6 11/12/2022 03:10:13 0.04, -75.24 0.18, -74.69 62.62 80
7 11/14/2022 02:58:00 0.04, -75.27 0.80, -71.73 402.40 80
8 11/14/2022 15:19:15 -0.03, -75.29 0.31, -76.88 181.50 80
9 11/16/2022 15:09:42 -0.03, -75.32 -0.33, -73.92 159.26 80
10 11/17/2022 03:31:05 0.02, -75.32 -0.81, -79.10 431.01 80
